TimeCDT,TemperatureF,Dew PointF,Humidity,Sea Level PressureIn,VisibilityMPH,Wind Direction,Wind SpeedMPH,Gust SpeedMPH,PrecipitationIn,Events,Conditions,WindDirDegrees,DateUTC
12:53 AM,68.0,64.0,87,30.06,10.0,Calm,Calm,-,N/A,,Clear,0,2013-08-28 05:53:00
1:53 AM,66.0,64.0,93,30.05,10.0,Calm,Calm,-,N/A,,Clear,0,2013-08-28 06:53:00
2:53 AM,66.0,63.0,90,30.03,10.0,Calm,Calm,-,N/A,,Clear,0,2013-08-28 07:53:00
3:53 AM,64.9,62.1,90,30.04,10.0,Calm,Calm,-,N/A,,Clear,0,2013-08-28 08:53:00
4:53 AM,64.0,62.1,93,30.04,10.0,Calm,Calm,-,N/A,,Clear,0,2013-08-28 09:53:00
5:53 AM,64.0,62.1,93,30.05,10.0,Calm,Calm,-,N/A,,Clear,0,2013-08-28 10:53:00
6:53 AM,63.0,61.0,93,30.08,8.0,Calm,Calm,-,N/A,,Clear,0,2013-08-28 11:53:00
7:53 AM,69.1,66.0,90,30.10,10.0,Calm,Calm,-,N/A,,Clear,0,2013-08-28 12:53:00
8:53 AM,75.0,66.0,73,30.11,10.0,Calm,Calm,-,N/A,,Clear,0,2013-08-28 13:53:00
9:53 AM,78.1,64.9,64,30.11,10.0,Variable,3.5,-,N/A,,Clear,0,2013-08-28 14:53:00
10:53 AM,81.0,64.0,56,30.11,10.0,East,4.6,-,N/A,,Clear,90,2013-08-28 15:53:00
11:53 AM,84.0,60.1,44,30.10,10.0,NE,4.6,-,N/A,,Partly Cloudy,40,2013-08-28 16:53:00
12:53 PM,84.0,61.0,46,30.09,10.0,NNE,8.1,-,N/A,,Mostly Cloudy,20,2013-08-28 17:53:00
1:53 PM,84.9,61.0,44,30.08,10.0,Variable,3.5,-,N/A,,Scattered Clouds,0,2013-08-28 18:53:00
2:53 PM,86.0,61.0,43,30.06,10.0,NE,4.6,-,N/A,,Clear,50,2013-08-28 19:53:00
3:53 PM,84.9,61.0,44,30.04,10.0,ENE,3.5,-,N/A,,Scattered Clouds,60,2013-08-28 20:53:00
4:53 PM,84.0,62.1,47,30.04,10.0,Calm,Calm,-,N/A,,Clear,0,2013-08-28 21:53:00
5:53 PM,86.0,61.0,43,30.03,10.0,ENE,3.5,-,N/A,,Clear,60,2013-08-28 22:53:00
6:53 PM,82.0,64.9,56,30.03,10.0,Calm,Calm,-,N/A,,Clear,0,2013-08-28 23:53:00
7:53 PM,77.0,66.0,69,30.03,10.0,Calm,Calm,-,N/A,,Clear,0,2013-08-29 00:53:00
8:53 PM,73.0,66.9,81,30.04,10.0,Calm,Calm,-,N/A,,Clear,0,2013-08-29 01:53:00
9:53 PM,71.1,64.9,81,30.05,10.0,Calm,Calm,-,N/A,,Clear,0,2013-08-29 02:53:00
10:53 PM,70.0,64.9,84,30.05,10.0,Calm,Calm,-,N/A,,Clear,0,2013-08-29 03:53:00
11:53 PM,66.9,64.9,93,30.05,7.0,Calm,Calm,-,N/A,,Clear,0,2013-08-29 04:53:00